View from above orbital plane
|
View from above satellite
|
Ground track
|
The orbit data is extracted from the following two-line orbital elements,
1 21419U 91041B 21104.53523546 .00000078 00000-0 37154-4 0 9992
2 21419 74.0382 263.4888 0041466 210.7275 149.1449 14.33993314560437
Epoch (UTC): | 14 April 2021 12:50:44 |
Eccentricity: | 0.0041466 |
inclination: | 74.0382° |
perigee height: | 749 km |
apogee height: | 808 km |
right ascension of ascending node: | 263.4888° |
argument of perigee: | 210.7275° |
revolutions per day: | 14.33993314 |
mean anomaly at epoch: | 149.1449° |
orbit number at epoch: | 56043 |
The dashed part of the orbit path shows where the satellite is in the earth's shadow,
|
|